SCP
0 0 0 0 0 0 0 0 0 -0 -0 -0 -0 -0 -0 -0 -0 -0 -0 -0 -0 -0 -0 -0 -0 -0 0 0 -0 0 0 0 0 0 -0 -0 0 0 0 0 0 0 0 0 0 0 0
0 0 0 0 0 0 0 0 0 -0 -0 -0 -0 -0 -0 -0 0 -0 -0 -0 -0 -0 -0 -0 -0 -0 0 0 0 0 -0 0 -0 -0 -0 0 0 0 -0 -0 -0 0 0 0 0 0 0
0 0 0 0 0 0 0 0 -0 -0 -0 -0 -0 -0 -0 -0 -0 -0 -0 -0 -0 -0 -0 -0 0 0 -0 0 0 0 0 -0 -0 0 -0 -0 0 0 0 -0 0 -0 0 0 0 0 0
0 0 0 0 0 0 0 0 -0 -0 -0 -0 -0 -0 -0 -0 -0 -0 -0 -0 -0 -0 -0 0 0 -0 0 0 0 0 -0 -0 -0 0 -0 0 0 -0 0 0 -0 0 0 0 0 0 0
0 0 0 0 0 0 0 0 0 -0 -0 -0 -0 -0 -0 -0 -0 -0 -0 -0 -0 0 0 0 0 0 -0 -0 0 0 -0 -0 -0 -0 0 0 0 0 0 -0 -0 -0 0 0 0 0 0
0 0 0 0 0 0 0 0 0 -0 -0 -0 -0 -0 -0 -0 -0 -0 -0 -0 -0 0 0 0 0 0 0 0 -0 0 0 0 0 0 0 0 0 0 0 0 0 -0 0 0 0 0 0
0 0 0 0 0 0 0 0 0 0 0 -0 -0 -0 -0 -0 -0 -0 0 0 0 0 0 0 0 0 0 0 0 0 0 0 0 0 0 0 0 0 0 0 0 -0 -0 -0 0 0 0
0 0 0 0 0 0 0 0 0 0 0 0 0 -0 -0 -0 -0 -0 0 0 0 -0 0 0 -0 -0 0 0 0 0 0 0 0 0 0 0 0 0 0 0 0 0 -0 -0 -0 -0 0
0 0 0 0 0 0 0 0 0 0 0 0 0 0 -0 -0 -0 0 0 -0 0 -0 0 0 0 -0 0 0 0 0 0 0 0 0 0 0 0 0 0 0 0 0 -0 -0 -0 0 0
0 0 0 0 0 0 0 0 0 0 0 0 0 0 0 -0 0 0 0 0 0 -0 0 0 0 0 0 0 0 0 0 0 0 0 -0 0 0 0 0 0 0 0 -0 -0 -0 0 -0
0 0 0 0 0 0 0 0 0 0 0 0 0 0 0 0 0 0 0 0 0 0 0 0 0 0 0 0 0 0 0 0 0 0 0 0 0 0 0 0 0 0 -0 0 0 -0 0
0 0 0 0 0 0 0 0 0 0 0 0 0 0 0 0 0 0 0 0 0 0 0 0 0 0 0 0 0 0 0 0 0 0 0 0 0 0 0 0 0 0 0 0 0 0 0
0 0 0 0 0 0 0 0 0 0 0 0 0 0 0 0 0 0 0 0 0 0 0 0 0 0 0 0 0 0 0 0 0 0 0 0 0 0 0 0 0 0 0 0 0 0 0
0 0 0 0 0 0 0 0 0 0 0 0 0 0 -0 0 0 0 0 0 0 0 0 0 0 0 0 0 0 0 0 0 0 0 0 0 0 -0 0 0 0 0 0 0 0 0 0
0 0 0 0 0 0 0 0 0 0 0 0 0 0 0 0 0 0 0 0 0 0 0 0 0 0 0 0 0 0 0 0 0 0 0 0 0 0 0 0 0 0 0 0 0 0 0
0 0 0 0 0 0 0 0 0 0 0 0 0 0 0 0 0 0 0 0 0 0 0 0 0 0 0 0 0 0 0 0 0 0 0 0 0 0 0 0 0 0 0 0 0 0 0
0 0 0 0 0 0 0 0 0 0 0 0 0 0 0 0 0 0 0 0 0 0 0 0 0 0 0 0 0 0 0 -0 0 0 0 0 0 0 0 0 0 0 0 0 0 0 0
0 0 0 0 0 0 0 0 0 0 0 -0 0 0 0 0 0 0 0 0 0 0 0 0 0 0 0 0 0 0 0 0 0 0 0 0 0 0 0 0 0 0 0 0 0 0 0
0 0 0 0 0 0 0 0 0 0 0 0 0 0 0 0 0 0 0 0 0 0 0 0 0 0 0 0 0 0 0 0 0 0 0 0 0 0 0 0 0 0 0 0 0 0 0
0 0 0 0 0 0 0 0 0 0 0 0 0 0 0 0 0 0 0 0 0 0 0 0 0 0 0 0 0 0 0 0 0 0 0 0 0 0 0 0 0 0 0 0 0 0 0
0 0 0 0 0 0 0 0 0 0 0 0 0 0 0 0 0 0 0 0 0 0 0 0 0 0 0 0 0 0 0 0 0 0 -0 0 0 0 0 0 0 0 0 0 0 0 0
0 0 0 0 0 0 0 0 0 0 0 0 0 0 0 0 0 0 0 0 0 0 0 0 0 0 0 0 0 0 0 0 0 0 0 0 0 0 0 0 0 0 0 0 0 0 0
0 0 0 0 0 0 0 0 0 0 0 0 0 0 0 0 0 0 0 0 0 0 0 0 0 0 0 0 0 0 0 0 0 0 0 0 0 0 0 0 0 0 0 0 0 0 0
0 0 0 0 0 0 0 0 0 0 0 0 0 0 0 0 0 0 0 0 0 0 0 0 0 0 0 0 0 0 0 0 0 0 0 0 0 0 0 0 0 0 0 0 0 0 0
0 0 0 0 0 0 0 0 0 0 0 0 0 0 0 0 0 0 0 0 0 0 0 0 0 0 0 0 0 0 0 0 0 0 0 0 0 0 0 0 0 0 0 0 0 0 0
0 0 0 0 0 0 0 0 0 0 0 0 0 0 0 0 0 0 0 0 0 0 0 0 0 0 0 0 0 0 0 0 0 0 0 0 0 0 0 0 0 0 0 0 0 0 0
0 0 0 0 0 0 0 0 0 0 0 0 0 0 0 0 0 0 0 0 0 0 0 0 0 0 0 0 0 0 0 0 0 0 0 0 0 0 0 0 0 0 0 0 0 0 0
0 0 0 0 0 0 0 0 0 0 0 0 0 0 0 0 0 0 0 0 0 0 0 0 0 0 0 0 0 0 0 0 0 0 0 0 0 0 0 0 0 0 0 0 0 0 0
0 0 0 0 0 0 0 0 0 0 0 0 0 0 0 0 0 0 0 0 0 0 0 0 0 0 0 0 0 0 0 0 0 0 0 0 0 0 0 0 0 0 0 0 0 0 0
Wind_Speed_500mb
20 21 21 21 22 23 24 26 27 29 30 31 33 34 35 35 35 35 34 33 32 30 26 20 18 16 11 4 3 9 4 16 18 12 2 3 13 12 6 8 20 18 5 11 13 26 35
22 21 21 21 24 25 25 26 28 30 31 32 34 35 36 37 38 36 33 31 31 28 23 16 14 13 9 4 4 10 3 14 16 8 6 3 8 18 6 9 9 20 25 6 20 26 19
25 23 22 22 24 27 28 28 29 31 32 34 35 37 39 39 39 38 34 30 29 25 18 12 11 12 13 9 6 13 8 16 12 8 3 2 10 14 4 13 24 31 14 6 10 6 9
26 23 24 25 27 29 31 32 32 32 34 36 37 39 40 41 42 40 34 30 26 18 10 9 9 11 11 12 12 1 5 15 17 13 6 4 10 10 8 41 12 8 8 3 7 5 11
24 26 26 28 29 30 32 34 36 35 36 38 40 41 42 43 44 40 33 24 13 4 4 5 9 7 7 10 15 7 10 15 13 9 4 13 13 9 9 11 9 10 6 9 5 13 6
24 24 25 28 31 33 35 37 38 39 39 40 42 43 43 44 44 40 26 10 7 1 3 5 10 5 3 3 5 14 12 18 12 13 10 1 6 8 7 10 9 10 7 6 4 10 7
22 24 26 30 32 36 38 39 40 41 41 42 43 44 43 44 43 31 18 3 5 3 11 12 5 6 14 2 3 13 12 20 10 11 7 9 12 1 7 9 7 7 3 2 5 10 11
25 26 28 33 36 38 40 42 43 42 42 42 44 45 43 42 37 14 17 11 14 14 17 16 23 31 31 22 6 12 13 12 10 8 6 12 1 8 7 5 2 3 4 9 7 5 8
28 28 31 34 37 39 41 43 46 45 43 42 44 45 44 40 21 10 8 12 19 13 5 11 12 19 16 16 11 15 20 13 10 9 6 11 8 9 10 5 3 6 3 3 9 6 5
30 33 34 36 38 40 41 44 47 47 44 40 43 45 44 38 11 17 6 16 20 1 9 11 6 6 20 15 4 17 25 17 6 12 14 6 4 3 5 3 6 8 8 5 12 5 4
32 35 38 39 39 40 42 45 48 48 45 40 40 44 41 36 28 14 9 12 6 3 5 1 3 5 22 16 13 14 29 16 15 10 12 9 5 4 4 7 7 9 7 4 7 6 4
33 36 39 42 42 41 42 46 49 50 47 42 39 42 41 35 24 9 7 6 1 11 7 5 6 7 8 1 4 10 11 14 7 9 9 4 2 6 10 5 3 3 6 9 6 6 7
33 35 39 43 43 42 42 45 49 51 49 44 40 39 42 31 17 9 4 2 9 6 8 8 3 6 5 2 2 4 10 8 10 7 1 6 4 4 6 4 7 14 12 9 10 10 10
37 37 40 45 44 43 42 45 49 52 50 47 42 39 36 24 19 14 9 9 4 6 9 8 5 4 11 9 3 5 8 6 4 10 6 11 13 15 5 13 13 7 13 10 4 6 11
40 41 42 45 44 43 41 44 48 52 50 50 45 35 21 11 19 23 15 7 13 10 6 12 7 6 2 4 9 6 10 14 16 15 15 10 10 6 9 8 14 6 7 10 11 5 5
41 42 44 45 45 42 41 43 47 49 47 49 48 26 4 8 23 26 9 9 7 8 9 4 2 3 9 8 8 12 12 9 11 23 12 11 2 9 2 8 2 11 14 8 4 8 10
41 43 45 44 44 40 39 41 44 46 44 42 31 6 5 20 26 7 7 12 10 18 9 5 4 5 4 7 12 11 16 9 11 8 14 12 9 11 6 7 16 5 3 10 9 8 11
43 41 44 41 38 36 37 37 40 42 40 35 15 4 13 25 7 4 5 9 4 9 4 9 2 9 6 5 7 6 9 8 11 23 19 14 11 10 20 1 1 8 15 13 10 11 5
38 37 36 33 30 31 32 32 33 36 37 43 25 5 17 4 6 2 8 8 7 5 8 5 6 12 9 7 8 6 5 3 7 14 19 17 3 4 18 13 6 8 10 9 9 7 13
31 31 27 23 23 25 26 25 28 29 30 33 8 3 5 9 3 7 4 7 9 9 8 7 6 2 4 3 12 4 3 2 3 3 10 23 10 16 17 18 8 10 11 11 12 7 9
25 20 16 14 19 20 19 21 24 24 24 16 5 3 2 3 3 2 2 5 8 8 3 7 4 5 5 7 5 4 4 12 2 17 6 8 12 11 12 10 9 7 7 11 13 11 11
20 14 11 9 16 18 15 17 20 22 20 6 6 5 5 2 3 3 2 2 5 10 4 8 8 10 8 10 4 5 2 2 3 10 8 7 3 6 4 7 13 5 6 12 12 7 13
12 10 8 12 17 17 12 15 16 18 16 5 5 5 4 5 4 5 4 4 6 12 3 3 6 4 10 7 6 3 12 17 8 4 4 5 7 6 6 6 4 5 3 5 5 6 9
7 7 8 15 15 16 10 14 16 16 13 11 5 4 2 5 1 3 3 6 8 8 7 9 10 4 3 14 19 20 12 11 14 14 6 6 7 4 6 2 7 10 6 7 8 9 12
12 7 8 11 13 13 13 14 15 16 15 14 6 2 2 3 7 10 4 5 14 14 4 6 9 10 18 9 7 8 8 7 3 3 8 2 9 6 7 5 7 6 4 6 7 11 2
11 13 11 16 12 8 11 13 14 15 15 14 2 6 3 1 9 3 2 3 1 4 10 7 8 7 8 6 6 9 9 7 5 13 6 6 10 7 5 8 15 13 8 8 12 11 6
17 14 13 13 11 11 11 11 13 14 15 13 8 5 4 7 9 14 7 5 3 3 3 9 14 6 13 5 5 6 8 4 7 9 4 6 7 8 6 6 12 12 12 19 8 15 4
19 19 19 14 12 11 12 12 13 13 14 9 10 6 7 10 24 26 24 20 11 5 5 4 6 7 7 6 5 6 5 8 2 4 7 9 9 6 4 5 12 12 11 16 9 7 5
18 17 20 21 18 16 14 14 13 14 12 10 7 16 18 21 21 29 39 38 32 21 1 3 1 4 7 7 2 4 3 2 4 5 3 4 10 5 13 10 8 8 8 15 6 7 9
Wind_Direction_500mb
350 349 349 349 349 348 350 349 348 347 344 342 340 338 335 332 328 327 326 323 320 320 322 321 322 332 343 303 30 1 61 180 189 207 124 43 24 10 342 337 59 66 38 41 114 119 125
349 349 351 351 349 347 348 348 348 346 345 342 340 338 336 332 328 326 324 321 315 313 313 309 310 321 317 301 61 14 203 169 196 196 183 55 4 353 326 31 78 103 85 36 84 104 132
355 352 357 355 353 348 347 348 347 346 344 342 340 338 337 334 329 327 325 319 310 307 301 291 299 307 268 202 135 51 133 171 179 168 155 331 341 349 21 80 105 100 79 20 8 75 114
356 3 6 0 358 355 350 347 345 343 342 341 339 338 337 336 331 329 329 317 308 302 286 274 282 293 250 205 208 73 135 161 163 179 161 311 331 347 66 124 66 80 63 84 244 202 153
358 11 7 4 1 357 352 348 344 341 340 339 338 337 338 338 333 334 332 320 317 307 246 255 272 269 256 219 231 200 170 157 167 171 135 298 319 71 106 91 50 10 220 212 294 215 140
359 359 0 0 357 355 352 348 344 340 338 338 336 336 339 340 336 339 342 350 27 63 215 236 246 288 259 78 113 179 179 164 136 118 138 27 57 59 55 79 197 201 219 249 211 214 202
348 349 350 350 350 349 349 348 343 339 336 336 335 335 338 342 341 347 16 60 332 296 265 228 237 260 283 300 67 176 179 169 148 93 88 23 66 95 195 179 211 137 200 352 242 206 155
337 338 338 340 342 343 344 345 344 339 335 333 334 334 337 343 345 7 16 74 48 325 305 272 243 247 253 277 283 183 178 148 140 113 109 32 95 226 82 100 279 148 56 328 302 165 182
329 329 331 334 336 338 340 341 342 340 335 332 332 332 334 343 352 8 62 34 352 337 248 290 240 238 236 196 198 192 182 158 130 111 109 132 212 127 126 144 296 354 55 3 248 357 53
324 324 326 328 330 333 335 337 339 339 335 331 329 330 331 344 356 339 153 358 341 346 57 282 265 226 175 150 209 180 177 167 62 156 142 162 303 185 73 195 179 15 228 223 271 86 291
318 322 324 325 326 328 330 332 335 337 335 329 327 326 327 332 325 312 274 345 347 321 25 191 198 183 172 170 136 170 174 177 147 149 103 238 129 122 70 232 173 222 201 299 341 121 43
311 316 320 324 324 323 325 328 331 334 334 326 324 323 319 319 317 269 248 349 150 41 259 25 121 142 125 5 103 124 139 165 156 109 42 196 350 135 197 82 148 105 23 48 76 71 4
305 311 317 321 321 319 322 325 328 331 332 324 321 318 310 303 291 254 222 142 44 140 313 337 84 138 96 142 93 74 125 103 135 104 329 349 184 258 171 59 25 67 54 353 352 8 229
300 305 313 320 318 317 318 323 326 330 331 323 322 315 299 286 254 223 177 57 158 256 262 311 20 86 157 155 185 57 82 130 56 97 109 185 302 173 191 183 185 142 134 143 284 318 293
294 299 306 317 316 315 315 320 325 329 332 327 326 322 299 243 215 181 166 95 210 214 307 335 325 114 124 131 135 104 159 193 202 169 161 140 262 269 174 159 134 154 189 181 107 50 334
290 293 301 310 313 311 313 318 324 329 334 334 332 336 66 167 166 161 86 217 230 222 313 345 35 168 156 171 127 148 166 213 214 190 155 208 341 226 13 122 93 149 159 85 14 194 249
291 292 297 303 307 307 310 318 324 329 337 339 336 1 79 137 147 153 154 228 251 265 251 233 281 322 104 142 147 177 191 242 208 139 129 141 128 280 84 179 191 79 195 52 124 141 184
288 290 291 299 301 301 307 318 323 329 342 344 349 52 145 147 69 52 169 205 263 277 263 269 207 229 231 128 128 167 194 248 158 156 165 202 148 195 208 264 63 164 192 150 135 231 236
293 287 290 294 294 297 308 318 327 333 345 349 340 348 164 157 112 331 292 281 250 255 238 223 255 199 192 153 113 193 201 200 25 161 168 178 212 315 332 355 33 208 184 133 106 81 196
295 290 289 288 287 299 314 321 331 332 339 343 341 33 109 215 99 124 356 285 293 248 261 272 276 316 131 93 17 127 251 235 11 321 246 159 149 164 212 212 152 168 181 165 135 130 187
312 294 296 279 294 306 319 327 332 331 337 346 357 3 35 227 305 35 336 309 304 331 216 355 32 326 168 98 68 36 332 319 331 14 63 102 204 179 223 142 182 215 182 171 183 179 173
323 304 293 293 312 312 319 331 336 335 343 354 9 6 1 295 292 160 104 107 298 322 12 334 99 10 85 111 127 169 201 277 315 342 57 4 259 171 246 170 181 205 62 191 220 172 271
320 307 266 281 299 311 323 339 342 346 353 357 332 319 319 343 343 113 196 301 280 326 207 53 309 113 64 101 315 92 112 84 76 311 15 77 124 91 239 350 63 357 247 247 254 237 169
327 288 234 263 284 304 328 339 340 348 352 359 328 323 287 273 329 212 354 341 300 307 287 338 17 122 99 326 121 123 108 99 68 57 33 122 88 59 175 83 200 226 229 240 224 254 252
310 283 272 286 275 292 316 324 333 340 341 337 313 254 287 267 259 289 244 269 316 324 320 303 4 339 338 135 66 57 350 1 325 33 20 51 126 91 151 163 276 260 200 117 88 287 266
295 294 280 270 271 277 287 302 325 329 334 338 72 198 216 165 248 231 324 315 293 329 341 293 333 344 10 76 73 150 201 217 283 335 124 72 74 121 125 154 193 228 162 109 128 291 198
276 278 289 282 284 283 284 288 309 321 334 331 224 223 246 269 269 212 215 214 216 149 216 304 327 5 23 72 101 158 214 196 211 192 246 14 5 148 167 202 285 238 158 116 133 237 235
281 272 271 288 290 282 285 285 298 308 327 322 230 208 245 264 273 252 248 240 240 220 163 311 10 355 46 73 135 197 166 218 189 263 189 177 152 213 92 97 263 148 108 171 202 248 246
301 283 270 268 276 277 279 273 288 291 306 322 248 245 263 269 269 275 272 260 239 228 329 315 216 226 165 97 142 115 135 93 139 251 2 268 186 210 188 221 263 278 281 271 280 269 261
Wind_Speed_850mb
20 21 21 21 22 23 24 26 27 29 30 31 33 34 35 35 35 35 34 33 32 30 26 20 18 16 11 4 3 9 4 16 18 12 2 3 13 12 6 8 20 18 5 11 13 26 35
22 21 21 21 24 25 25 26 28 30 31 32 34 35 36 37 38 36 33 31 31 28 23 16 14 13 9 4 4 10 3 14 16 8 6 3 8 18 6 9 9 20 25 6 20 26 19
25 23 22 22 24 27 28 28 29 31 32 34 35 37 39 39 39 38 34 30 29 25 18 12 11 12 13 9 6 13 8 16 12 8 3 2 10 14 4 13 24 31 14 6 10 6 9
26 23 24 25 27 29 31 32 32 32 34 36 37 39 40 41 42 40 34 30 26 18 10 9 9 11 11 12 12 1 5 15 17 13 6 4 10 10 8 41 12 8 8 3 7 5 11
24 26 26 28 29 30 32 34 36 35 36 38 40 41 42 43 44 40 33 24 13 4 4 5 9 7 7 10 15 7 10 15 13 9 4 13 13 9 9 11 9 10 6 9 5 13 6
24 24 25 28 31 33 35 37 38 39 39 40 42 43 43 44 44 40 26 10 7 1 3 5 10 5 3 3 5 14 12 18 12 13 10 1 6 8 7 10 9 10 7 6 4 10 7
22 24 26 30 32 36 38 39 40 41 41 42 43 44 43 44 43 31 18 3 5 3 11 12 5 6 14 2 3 13 12 20 10 11 7 9 12 1 7 9 7 7 3 2 5 10 11
25 26 28 33 36 38 40 42 43 42 42 42 44 45 43 42 37 14 17 11 14 14 17 16 23 31 31 22 6 12 13 12 10 8 6 12 1 8 7 5 2 3 4 9 7 5 8
28 28 31 34 37 39 41 43 46 45 43 42 44 45 44 40 21 10 8 12 19 13 5 11 12 19 16 16 11 15 20 13 10 9 6 11 8 9 10 5 3 6 3 3 9 6 5
30 33 34 36 38 40 41 44 47 47 44 40 43 45 44 38 11 17 6 16 20 1 9 11 6 6 20 15 4 17 25 17 6 12 14 6 4 3 5 3 6 8 8 5 12 5 4
32 35 38 39 39 40 42 45 48 48 45 40 40 44 41 36 28 14 9 12 6 3 5 1 3 5 22 16 13 14 29 16 15 10 12 9 5 4 4 7 7 9 7 4 7 6 4
33 36 39 42 42 41 42 46 49 50 47 42 39 42 41 35 24 9 7 6 1 11 7 5 6 7 8 1 4 10 11 14 7 9 9 4 2 6 10 5 3 3 6 9 6 6 7
33 35 39 43 43 42 42 45 49 51 49 44 40 39 42 31 17 9 4 2 9 6 8 8 3 6 5 2 2 4 10 8 10 7 1 6 4 4 6 4 7 14 12 9 10 10 10
37 37 40 45 44 43 42 45 49 52 50 47 42 39 36 24 19 14 9 9 4 6 9 8 5 4 11 9 3 5 8 6 4 10 6 11 13 15 5 13 13 7 13 10 4 6 11
40 41 42 45 44 43 41 44 48 52 50 50 45 35 21 11 19 23 15 7 13 10 6 12 7 6 2 4 9 6 10 14 16 15 15 10 10 6 9 8 14 6 7 10 11 5 5
41 42 44 45 45 42 41 43 47 49 47 49 48 26 4 8 23 26 9 9 7 8 9 4 2 3 9 8 8 12 12 9 11 23 12 11 2 9 2 8 2 11 14 8 4 8 10
41 43 45 44 44 40 39 41 44 46 44 42 31 6 5 20 26 7 7 12 10 18 9 5 4 5 4 7 12 11 16 9 11 8 14 12 9 11 6 7 16 5 3 10 9 8 11
43 41 44 41 38 36 37 37 40 42 40 35 15 4 13 25 7 4 5 9 4 9 4 9 2 9 6 5 7 6 9 8 11 23 19 14 11 10 20 1 1 8 15 13 10 11 5
38 37 36 33 30 31 32 32 33 36 37 43 25 5 17 4 6 2 8 8 7 5 8 5 6 12 9 7 8 6 5 3 7 14 19 17 3 4 18 13 6 8 10 9 9 7 13
31 31 27 23 23 25 26 25 28 29 30 33 8 3 5 9 3 7 4 7 9 9 8 7 6 2 4 3 12 4 3 2 3 3 10 23 10 16 17 18 8 10 11 11 12 7 9
25 20 16 14 19 20 19 21 24 24 24 16 5 3 2 3 3 2 2 5 8 8 3 7 4 5 5 7 5 4 4 12 2 17 6 8 12 11 12 10 9 7 7 11 13 11 11
20 14 11 9 16 18 15 17 20 22 20 6 6 5 5 2 3 3 2 2 5 10 4 8 8 10 8 10 4 5 2 2 3 10 8 7 3 6 4 7 13 5 6 12 12 7 13
12 10 8 12 17 17 12 15 16 18 16 5 5 5 4 5 4 5 4 4 6 12 3 3 6 4 10 7 6 3 12 17 8 4 4 5 7 6 6 6 4 5 3 5 5 6 9
7 7 8 15 15 16 10 14 16 16 13 11 5 4 2 5 1 3 3 6 8 8 7 9 10 4 3 14 19 20 12 11 14 14 6 6 7 4 6 2 7 10 6 7 8 9 12
12 7 8 11 13 13 13 14 15 16 15 14 6 2 2 3 7 10 4 5 14 14 4 6 9 10 18 9 7 8 8 7 3 3 8 2 9 6 7 5 7 6 4 6 7 11 2
11 13 11 16 12 8 11 13 14 15 15 14 2 6 3 1 9 3 2 3 1 4 10 7 8 7 8 6 6 9 9 7 5 13 6 6 10 7 5 8 15 13 8 8 12 11 6
17 14 13 13 11 11 11 11 13 14 15 13 8 5 4 7 9 14 7 5 3 3 3 9 14 6 13 5 5 6 8 4 7 9 4 6 7 8 6 6 12 12 12 19 8 15 4
19 19 19 14 12 11 12 12 13 13 14 9 10 6 7 10 24 26 24 20 11 5 5 4 6 7 7 6 5 6 5 8 2 4 7 9 9 6 4 5 12 12 11 16 9 7 5
18 17 20 21 18 16 14 14 13 14 12 10 7 16 18 21 21 29 39 38 32 21 1 3 1 4 7 7 2 4 3 2 4 5 3 4 10 5 13 10 8 8 8 15 6 7 9
Wind_Direction_850mb
350 349 349 349 349 348 350 349 348 347 344 342 340 338 335 332 328 327 326 323 320 320 322 321 322 332 343 303 30 1 61 180 189 207 124 43 24 10 342 337 59 66 38 41 114 119 125
349 349 351 351 349 347 348 348 348 346 345 342 340 338 336 332 328 326 324 321 315 313 313 309 310 321 317 301 61 14 203 169 196 196 183 55 4 353 326 31 78 103 85 36 84 104 132
355 352 357 355 353 348 347 348 347 346 344 342 340 338 337 334 329 327 325 319 310 307 301 291 299 307 268 202 135 51 133 171 179 168 155 331 341 349 21 80 105 100 79 20 8 75 114
356 3 6 0 358 355 350 347 345 343 342 341 339 338 337 336 331 329 329 317 308 302 286 274 282 293 250 205 208 73 135 161 163 179 161 311 331 347 66 124 66 80 63 84 244 202 153
358 11 7 4 1 357 352 348 344 341 340 339 338 337 338 338 333 334 332 320 317 307 246 255 272 269 256 219 231 200 170 157 167 171 135 298 319 71 106 91 50 10 220 212 294 215 140
359 359 0 0 357 355 352 348 344 340 338 338 336 336 339 340 336 339 342 350 27 63 215 236 246 288 259 78 113 179 179 164 136 118 138 27 57 59 55 79 197 201 219 249 211 214 202
348 349 350 350 350 349 349 348 343 339 336 336 335 335 338 342 341 347 16 60 332 296 265 228 237 260 283 300 67 176 179 169 148 93 88 23 66 95 195 179 211 137 200 352 242 206 155
337 338 338 340 342 343 344 345 344 339 335 333 334 334 337 343 345 7 16 74 48 325 305 272 243 247 253 277 283 183 178 148 140 113 109 32 95 226 82 100 279 148 56 328 302 165 182
329 329 331 334 336 338 340 341 342 340 335 332 332 332 334 343 352 8 62 34 352 337 248 290 240 238 236 196 198 192 182 158 130 111 109 132 212 127 126 144 296 354 55 3 248 357 53
324 324 326 328 330 333 335 337 339 339 335 331 329 330 331 344 356 339 153 358 341 346 57 282 265 226 175 150 209 180 177 167 62 156 142 162 303 185 73 195 179 15 228 223 271 86 291
318 322 324 325 326 328 330 332 335 337 335 329 327 326 327 332 325 312 274 345 347 321 25 191 198 183 172 170 136 170 174 177 147 149 103 238 129 122 70 232 173 222 201 299 341 121 43
311 316 320 324 324 323 325 328 331 334 334 326 324 323 319 319 317 269 248 349 150 41 259 25 121 142 125 5 103 124 139 165 156 109 42 196 350 135 197 82 148 105 23 48 76 71 4
305 311 317 321 321 319 322 325 328 331 332 324 321 318 310 303 291 254 222 142 44 140 313 337 84 138 96 142 93 74 125 103 135 104 329 349 184 258 171 59 25 67 54 353 352 8 229
300 305 313 320 318 317 318 323 326 330 331 323 322 315 299 286 254 223 177 57 158 256 262 311 20 86 157 155 185 57 82 130 56 97 109 185 302 173 191 183 185 142 134 143 284 318 293
294 299 306 317 316 315 315 320 325 329 332 327 326 322 299 243 215 181 166 95 210 214 307 335 325 114 124 131 135 104 159 193 202 169 161 140 262 269 174 159 134 154 189 181 107 50 334
290 293 301 310 313 311 313 318 324 329 334 334 332 336 66 167 166 161 86 217 230 222 313 345 35 168 156 171 127 148 166 213 214 190 155 208 341 226 13 122 93 149 159 85 14 194 249
291 292 297 303 307 307 310 318 324 329 337 339 336 1 79 137 147 153 154 228 251 265 251 233 281 322 104 142 147 177 191 242 208 139 129 141 128 280 84 179 191 79 195 52 124 141 184
288 290 291 299 301 301 307 318 323 329 342 344 349 52 145 147 69 52 169 205 263 277 263 269 207 229 231 128 128 167 194 248 158 156 165 202 148 195 208 264 63 164 192 150 135 231 236
293 287 290 294 294 297 308 318 327 333 345 349 340 348 164 157 112 331 292 281 250 255 238 223 255 199 192 153 113 193 201 200 25 161 168 178 212 315 332 355 33 208 184 133 106 81 196
295 290 289 288 287 299 314 321 331 332 339 343 341 33 109 215 99 124 356 285 293 248 261 272 276 316 131 93 17 127 251 235 11 321 246 159 149 164 212 212 152 168 181 165 135 130 187
312 294 296 279 294 306 319 327 332 331 337 346 357 3 35 227 305 35 336 309 304 331 216 355 32 326 168 98 68 36 332 319 331 14 63 102 204 179 223 142 182 215 182 171 183 179 173
323 304 293 293 312 312 319 331 336 335 343 354 9 6 1 295 292 160 104 107 298 322 12 334 99 10 85 111 127 169 201 277 315 342 57 4 259 171 246 170 181 205 62 191 220 172 271
320 307 266 281 299 311 323 339 342 346 353 357 332 319 319 343 343 113 196 301 280 326 207 53 309 113 64 101 315 92 112 84 76 311 15 77 124 91 239 350 63 357 247 247 254 237 169
327 288 234 263 284 304 328 339 340 348 352 359 328 323 287 273 329 212 354 341 300 307 287 338 17 122 99 326 121 123 108 99 68 57 33 122 88 59 175 83 200 226 229 240 224 254 252
310 283 272 286 275 292 316 324 333 340 341 337 313 254 287 267 259 289 244 269 316 324 320 303 4 339 338 135 66 57 350 1 325 33 20 51 126 91 151 163 276 260 200 117 88 287 266
295 294 280 270 271 277 287 302 325 329 334 338 72 198 216 165 248 231 324 315 293 329 341 293 333 344 10 76 73 150 201 217 283 335 124 72 74 121 125 154 193 228 162 109 128 291 198
276 278 289 282 284 283 284 288 309 321 334 331 224 223 246 269 269 212 215 214 216 149 216 304 327 5 23 72 101 158 214 196 211 192 246 14 5 148 167 202 285 238 158 116 133 237 235
281 272 271 288 290 282 285 285 298 308 327 322 230 208 245 264 273 252 248 240 240 220 163 311 10 355 46 73 135 197 166 218 189 263 189 177 152 213 92 97 263 148 108 171 202 248 246
301 283 270 268 276 277 279 273 288 291 306 322 248 245 263 269 269 275 272 260 239 228 329 315 216 226 165 97 142 115 135 93 139 251 2 268 186 210 188 221 263 278 281 271 280 269 261